FW9355 Weather Reports


time (UTC)temp
F
wind
direction
speed
knots
gust
knots
rain 1hr
in
rain 24hr
in
rain mn
in
humidity
%
barometer
mb
20260503185100 57 0 1.7 7.8 0.00 0.00 0.00 49 1015.1
20260503184559 57 336 1.7 7.8 0.00 0.00 0.00 49 1015.3
20260503184102 57 282 0.9 5.2 0.00 0.00 0.00 51 1015.2
20260503183601 57 281 0.9 6.1 0.00 0.00 0.00 51 1015.4
20260503183105 57 0 0.0 12.2 0.00 0.00 0.00 50 1015.6
20260503182605 57 0 2.6 12.2 0.00 0.00 0.00 49 1015.8
20260503182100 57 286 7.0 12.2 0.00 0.00 0.00 48 1015.9
20260503181623 58 309 1.7 8.7 0.00 0.00 0.00 47 1016.0
20260503181100 58 261 1.7 9.6 0.00 0.00 0.00 48 1016.1
20260503180600 58 287 2.6 9.6 0.00 0.00 0.00 47 1016.0
20260503180134 59 299 2.6 8.7 0.00 0.00 0.00 46 1016.0
20260503175601 59 192 1.7 5.2 0.00 0.00 0.00 46 1016.2
20260503175100 59 207 1.7 7.0 0.00 0.00 0.00 44 1016.1
20260503174601 59 155 1.7 7.8 0.00 0.00 0.00 46 1016.2
20260503174101 60 159 1.7 7.8 0.00 0.00 0.00 46 1016.3
20260503173601 60 156 1.7 7.0 0.00 0.00 0.00 45 1016.4
20260503173102 59 261 0.9 11.3 0.00 0.00 0.00 46 1016.5
20260503172602 59 285 3.5 11.3 0.00 0.00 0.00 45 1016.5
20260503172100 59 275 1.7 9.6 0.00 0.00 0.00 44 1016.6
20260503171600 59 271 3.5 11.3 0.00 0.00 0.00 44 1016.7
20260503171101 59 273 4.3 11.3 0.00 0.00 0.00 43 1016.6
20260503170601 60 255 3.5 11.3 0.00 0.00 0.00 43 1016.7
20260503170105 61 263 3.5 11.3 0.00 0.00 0.00 43 1016.7
20260503150600 57 275 3.5 9.6 0.00 0.00 0.00 48 1017.8
20260503150107 56 290 3.5 9.6 0.00 0.00 0.00 48 1017.9
20260503131059 49 145 1.7 7.8 0.00 0.00 0.00 57 1018.3
20260503130600 49 273 1.7 7.8 0.00 0.00 0.00 58 1018.2
20260503120110 43 169 0.0 4.3 0.00 0.00 0.00 65 1018.4
20260503110559 41 0 0.9 7.8 0.00 0.00 0.00 67 1018.0
20260503100128 40 269 0.0 5.2 0.00 0.00 0.00 68 1017.6
20260503081602 39 0 0.0 1.7 0.00 0.00 0.00 73 1017.7
20260503081101 39 0 0.0 1.7 0.00 0.00 0.00 74 1017.7
20260503080602 39 0 0.0 1.7 0.00 0.00 0.00 74 1017.7
20260503072559 38 0 0.0 0.0 0.00 0.00 0.00 78 1017.7
20260503072059 38 0 0.0 0.0 0.00 0.00 0.00 78 1017.5
20260503071624 38 0 0.0 0.0 0.00 0.00 0.00 79 1017.6
20260503071100 38 0 0.0 0.0 0.00 0.00 0.00 79 1017.7
20260503070600 38 0 0.0 0.0 0.00 0.00 0.00 80 1017.6
20260503070113 38 0 0.0 0.0 0.00 0.00 0.00 80 1017.7
20260503060116 38 0 0.0 0.0 0.00 0.00 0.00 82 1018.1
20260503055101 38 0 0.0 0.0 0.00 0.00 0.00 82 1018.1
20260503054559 38 0 0.0 0.0 0.00 0.00 0.00 82 1018.2
20260503054101 38 0 0.0 0.0 0.00 0.00 0.00 81 1018.3
20260503053601 39 0 0.0 0.0 0.00 0.00 0.00 81 1018.3
20260503053103 39 0 0.0 0.0 0.00 0.00 0.00 81 1018.3
20260503052603 39 0 0.0 0.0 0.00 0.00 0.00 81 1018.4
20260503052101 39 0 0.0 0.0 0.00 0.00 0.00 81 1018.3
20260503051600 39 0 0.0 0.0 0.00 0.00 0.00 81 1018.4
20260503051101 39 0 0.0 0.0 0.00 0.00 0.00 81 1018.4
20260503050603 39 0 0.0 0.0 0.00 0.00 0.00 81 1018.4
20260503050059 39 0 0.0 0.0 0.00 0.00 0.00 81 1018.5
20260503045603 38 0 0.0 0.0 0.00 0.00 0.00 81 1018.5
20260503045102 38 0 0.0 0.0 0.00 0.00 0.00 81 1018.4
20260503044628 38 0 0.0 0.0 0.00 0.00 0.00 81 1018.5
20260503044102 38 0 0.0 0.0 0.00 0.00 0.00 80 1018.3
20260503043601 38 0 0.0 0.0 0.00 0.00 0.00 79 1018.2
20260503043101 38 0 0.0 0.0 0.00 0.00 0.00 79 1018.4
20260503042601 38 0 0.0 0.0 0.00 0.00 0.00 78 1018.4
20260503042101 38 0 0.0 0.0 0.00 0.00 0.00 78 1018.4
20260503041601 38 0 0.0 0.0 0.00 0.00 0.00 78 1018.3
20260503041101 38 0 0.0 0.0 0.00 0.00 0.00 76 1018.3
20260503040601 38 0 0.0 0.0 0.00 0.00 0.00 75 1018.3
20260503040107 39 0 0.0 0.0 0.00 0.00 0.00 75 1018.3
20260503035603 39 0 0.0 0.0 0.00 0.00 0.00 74 1018.4
20260503035103 39 0 0.0 0.0 0.00 0.00 0.00 74 1018.3
20260503034602 39 0 0.0 0.0 0.00 0.00 0.00 73 1018.4
20260503034102 40 0 0.0 0.0 0.00 0.00 0.00 73 1018.4
20260503033606 40 0 0.0 0.9 0.00 0.00 0.00 72 1018.5
20260503033111 39 0 0.0 0.9 0.00 0.00 0.00 71 1018.6
20260503032601 40 0 0.0 0.9 0.00 0.00 0.00 72 1018.5
20260503032059 40 0 0.0 0.9 0.00 0.00 0.00 72 1018.5
20260503031601 40 0 0.0 0.0 0.00 0.00 0.00 72 1018.5
20260503031101 40 0 0.0 0.0 0.00 0.00 0.00 70 1018.5
20260503030639 40 0 0.0 0.0 0.00 0.00 0.00 70 1018.5
20260503030109 40 0 0.0 0.0 0.00 0.00 0.00 69 1018.5
20260503025606 40 0 0.0 0.0 0.00 0.00 0.00 68 1018.7
20260503025056 40 0 0.0 0.0 0.00 0.00 0.00 67 1018.5
20260503024602 41 0 0.0 0.9 0.00 0.00 0.00 67 1018.4
20260503024101 41 0 0.0 0.9 0.00 0.00 0.00 67 1018.4
20260503023557 41 0 0.0 0.0 0.00 0.00 0.00 67 1018.5
20260503023102 41 0 0.0 0.0 0.00 0.00 0.00 66 1018.4
20260503022601 41 0 0.0 0.9 0.00 0.00 0.00 65 1018.4
20260503022101 42 0 0.0 0.9 0.00 0.00 0.00 65 1018.4
20260503021604 42 0 0.0 0.0 0.00 0.00 0.00 64 1018.5
20260503021103 42 0 0.0 0.0 0.00 0.00 0.00 64 1018.4
20260503020604 42 0 0.0 0.0 0.00 0.00 0.00 64 1018.3
20260503020115 42 0 0.0 0.0 0.00 0.00 0.00 63 1018.3
20260503015602 43 0 0.0 0.0 0.00 0.00 0.00 64 1018.2
20260503015132 43 0 0.0 0.0 0.00 0.00 0.00 64 1018.1
20260503014610 43 0 0.0 0.0 0.00 0.00 0.00 63 1018.1
20260503014056 44 0 0.0 0.0 0.00 0.00 0.00 62 1018.1
20260503013559 44 0 0.0 0.0 0.00 0.00 0.00 59 1018.2
20260503013116 45 0 0.0 0.0 0.00 0.00 0.00 60 1018.1
20260503012559 46 0 0.0 0.0 0.00 0.00 0.00 59 1018.1
20260503012055 46 0 0.0 0.0 0.00 0.00 0.00 57 1018.1
20260503011600 46 0 0.0 0.9 0.00 0.00 0.00 58 1018.1
20260503011058 46 0 0.0 0.9 0.00 0.00 0.00 58 1018.0
20260503010556 46 0 0.0 0.9 0.00 0.00 0.00 55 1018.0
20260503010058 47 0 0.0 1.7 0.00 0.00 0.00 55 1018.0
20260503005600 47 0 0.0 2.6 0.00 0.00 0.00 53 1018.0
20260503005100 48 0 0.0 4.3 0.00 0.00 0.00 51 1018.0
20260503004605 48 311 0.9 4.3 0.00 0.00 0.00 51 1018.0
20260503004100 48 320 0.9 3.5 0.00 0.00 0.00 51 1017.9
20260503003559 48 0 0.9 3.5 0.00 0.00 0.00 49 1017.9
20260503003105 49 309 0.9 3.5 0.00 0.00 0.00 50 1017.9
20260503002600 49 310 0.9 3.5 0.00 0.00 0.00 49 1017.9
20260503002059 49 321 0.9 3.5 0.00 0.00 0.00 50 1017.9
20260503001559 50 320 0.9 3.5 0.00 0.00 0.00 48 1017.8
20260503001059 50 352 0.9 5.2 0.00 0.00 0.00 46 1017.8
20260503000559 50 327 1.7 7.8 0.00 0.00 0.00 48 1017.7
20260503000104 50 328 1.7 9.6 0.00 0.00 0.00 47 1017.8
20260502235559 50 327 1.7 9.6 0.00 0.00 0.00 43 1017.8
20260502235059 51 325 3.5 10.4 0.00 0.00 0.00 44 1017.6
20260502234617 51 317 3.5 10.4 0.00 0.00 0.00 43 1017.6
20260502234056 52 315 3.5 7.8 0.00 0.00 0.00 44 1017.7
20260502233559 52 317 4.3 7.8 0.00 0.00 0.00 44 1017.5
20260502233106 52 331 4.3 7.8 0.00 0.00 0.00 44 1017.4
20260502232555 52 335 3.5 10.4 0.00 0.00 0.00 43 1017.6
20260502232059 52 291 4.3 10.4 0.00 0.00 0.00 44 1017.5
20260502231605 52 305 3.5 9.6 0.00 0.00 0.00 43 1017.5
20260502231059 52 298 2.6 6.1 0.00 0.00 0.00 46 1017.5
20260502230558 52 325 2.6 6.1 0.00 0.00 0.00 43 1017.7
20260502230058 52 352 0.9 6.1 0.00 0.00 0.00 43 1017.8
20260502225602 52 50 0.9 7.8 0.00 0.00 0.00 42 1017.8
20260502225059 53 31 3.5 7.8 0.00 0.00 0.00 42 1017.8
20260502224604 53 344 1.7 7.8 0.00 0.00 0.00 44 1017.9
20260502224127 52 48 1.7 7.8 0.00 0.00 0.00 45 1017.9
20260502223604 52 343 0.9 6.1 0.00 0.00 0.00 44 1017.8
20260502223107 53 325 2.6 6.1 0.00 0.00 0.00 42 1017.8
20260502222600 53 321 1.7 7.8 0.00 0.00 0.00 43 1018.0
20260502222100 53 339 1.7 10.4 0.00 0.00 0.00 42 1018.0
20260502221603 52 327 3.5 10.4 0.00 0.00 0.00 44 1018.0
20260502221101 52 17 5.2 10.4 0.00 0.00 0.00 44 1018.0
20260502220604 52 338 1.7 9.6 0.00 0.00 0.00 43 1018.1
20260502220106 52 352 4.3 7.8 0.00 0.00 0.00 46 1017.8
20260502215601 52 322 3.5 9.6 0.00 0.00 0.00 47 1017.9
20260502215100 52 306 2.6 11.3 0.00 0.00 0.00 45 1017.8
20260502214615 51 77 3.5 11.3 0.00 0.00 0.00 43 1018.0
20260502214100 52 27 5.2 11.3 0.00 0.00 0.00 45 1018.0
20260502213600 52 334 3.5 12.2 0.00 0.00 0.00 45 1017.9
20260502213123 50 292 6.1 12.2 0.00 0.00 0.00 45 1017.8
20260502212601 51 347 5.2 11.3 0.00 0.00 0.00 44 1017.9
20260502212059 51 352 4.3 11.3 0.00 0.00 0.00 47 1017.8
20260502211602 50 317 5.2 11.3 0.00 0.00 0.00 47 1017.9
20260502211102 51 5 6.1 11.3 0.00 0.00 0.00 46 1017.8
20260502210601 51 319 6.1 9.6 0.00 0.00 0.00 49 1017.9
20260502210059 50 337 4.3 11.3 0.00 0.00 0.00 45 1017.8
20260502205602 52 324 6.1 11.3 0.00 0.00 0.00 45 1017.9
20260502205108 53 312 3.5 8.7 0.00 0.00 0.00 48 1017.8
20260502204559 52 81 2.6 9.6 0.00 0.00 0.00 48 1017.9
20260502204104 51 316 1.7 13.9 0.00 0.00 0.00 45 1017.8
20260502203600 52 85 4.3 13.9 0.00 0.00 0.00 44 1017.9
20260502203117 52 345 7.8 13.9 0.00 0.00 0.00 49 1017.9
20260502202605 52 317 7.8 16.5 0.00 0.00 0.00 47 1018.1
20260502202100 52 316 7.0 16.5 0.00 0.00 0.00 46 1018.0
20260502201559 51 297 7.0 12.2 0.00 0.00 0.00 44 1018.0
20260502201103 50 320 5.2 12.2 0.00 0.00 0.00 48 1018.1
20260502200601 51 333 4.3 10.4 0.00 0.00 0.00 51 1018.1
20260502200105 51 323 1.7 10.4 0.00 0.00 0.00 47 1018.1
20260502195600 51 324 5.2 11.3 0.00 0.00 0.00 50 1018.2
20260502195104 50 321 6.1 13.0 0.00 0.00 0.00 47 1018.2
20260502194558 51 327 5.2 13.0 0.00 0.00 0.00 50 1018.3
20260502194101 50 311 7.0 13.0 0.00 0.00 0.00 50 1018.4
20260502193601 50 64 4.3 12.2 0.00 0.00 0.00 49 1018.4
20260502193100 51 322 5.2 12.2 0.00 0.00 0.00 46 1018.3
20260502192601 52 330 5.2 10.4 0.00 0.00 0.00 47 1018.3
20260502192100 51 315 5.2 11.3 0.00 0.00 0.00 50 1018.3
20260502191603 51 288 5.2 11.3 0.00 0.00 0.00 50 1018.4
20260502191101 50 319 7.0 13.9 0.00 0.00 0.00 51 1018.7
20260502190601 50 360 7.0 13.9 0.00 0.00 0.00 50 1018.7
20260502190100 51 317 5.2 13.0 0.00 0.00 0.00 53 1018.6
20260502185604 51 297 5.2 10.4 0.00 0.00 0.00 50 1018.6